| time (UTC) | temp F | wind direction | speed knots | gust knots | rain 1hr in | rain 24hr in | rain mn in | humidity % | barometer mb |
| 20260504173102 | 54 | 42 | 7.8 | 18.2 | 0.00 | 0.00 | 0.00 | 38 | 1015.2 |
| 20260504171554 | 54 | 29 | 11.3 | 17.4 | 0.00 | 0.00 | 0.00 | 39 | 1015.2 |
| 20260504081552 | 49 | 88 | 7.8 | 15.6 | 0.00 | 0.00 | 0.00 | 50 | 1015.1 |
| 20260504080109 | 50 | 84 | 7.0 | 14.8 | 0.00 | 0.00 | 0.00 | 48 | 1014.9 |
| 20260504044559 | 58 | 100 | 6.1 | 11.3 | 0.00 | 0.01 | 0.00 | 36 | 1009.4 |
| 20260504043055 | 59 | 85 | 7.8 | 12.2 | 0.00 | 0.01 | 0.00 | 36 | 1008.8 |
| 20260504041553 | 59 | 78 | 7.0 | 9.6 | 0.00 | 0.01 | 0.00 | 36 | 1008.5 |
| 20260504040103 | 60 | 84 | 6.1 | 11.3 | 0.00 | 0.01 | 0.00 | 35 | 1008.3 |
| 20260504034559 | 61 | 88 | 11.3 | 15.6 | 0.00 | 0.01 | 0.00 | 33 | 1008.0 |
| 20260504033126 | 62 | 80 | 8.7 | 12.2 | 0.00 | 0.01 | 0.00 | 30 | 1007.6 |
| 20260504031551 | 63 | 82 | 7.0 | 10.4 | 0.00 | 0.01 | 0.00 | 27 | 1007.3 |
| 20260504030051 | 63 | 104 | 1.7 | 5.2 | 0.00 | 0.01 | 0.00 | 25 | 1006.9 |
| 20260504024557 | 65 | 93 | 3.5 | 6.1 | 0.00 | 0.01 | 0.00 | 24 | 1006.9 |
| 20260504023102 | 65 | 83 | 2.6 | 5.2 | 0.00 | 0.01 | 0.00 | 26 | 1006.9 |
| 20260504021553 | 67 | 81 | 1.7 | 7.0 | 0.00 | 0.01 | 0.00 | 25 | 1006.9 |
| 20260504020101 | 69 | 78 | 3.5 | 7.8 | 0.00 | 0.01 | 0.00 | 25 | 1006.8 |
| 20260504014552 | 71 | 73 | 3.5 | 11.3 | 0.00 | 0.01 | 0.00 | 22 | 1006.7 |
| 20260504013105 | 72 | 67 | 7.0 | 12.2 | 0.00 | 0.01 | 0.00 | 23 | 1006.8 |
| 20260504011553 | 72 | 57 | 8.7 | 12.2 | 0.00 | 0.01 | 0.00 | 21 | 1006.8 |
| 20260504010112 | 74 | 39 | 4.3 | 9.6 | 0.00 | 0.01 | 0.00 | 19 | 1006.8 |
| 20260504004614 | 76 | 30 | 3.5 | 11.3 | 0.00 | 0.01 | 0.00 | 18 | 1006.8 |
| 20260504003055 | 75 | 335 | 5.2 | 12.2 | 0.00 | 0.01 | 0.00 | 17 | 1007.0 |
| 20260504001607 | 76 | 98 | 4.3 | 11.3 | 0.00 | 0.01 | 0.00 | 17 | 1007.1 |
| 20260504000052 | 76 | 18 | 4.3 | 12.2 | 0.00 | 0.01 | 0.00 | 16 | 1007.1 |
| 20260503234554 | 76 | 9 | 7.0 | 13.0 | 0.00 | 0.01 | 0.00 | 17 | 1007.4 |
| 20260503233052 | 75 | 46 | 4.3 | 10.4 | 0.00 | 0.01 | 0.00 | 16 | 1007.4 |
| 20260503231550 | 76 | 340 | 6.1 | 15.6 | 0.00 | 0.01 | 0.00 | 17 | 1007.5 |
| 20260503230100 | 75 | 360 | 6.1 | 11.3 | 0.00 | 0.01 | 0.00 | 16 | 1007.6 |
| 20260503224554 | 75 | 337 | 7.8 | 16.5 | 0.00 | 0.01 | 0.00 | 17 | 1007.8 |
| 20260503223058 | 75 | 5 | 6.1 | 18.2 | 0.00 | 0.01 | 0.00 | 17 | 1007.9 |
| 20260503221555 | 75 | 13 | 6.1 | 15.6 | 0.00 | 0.01 | 0.00 | 17 | 1008.0 |
| 20260503220057 | 75 | 13 | 4.3 | 12.2 | 0.00 | 0.01 | 0.00 | 17 | 1008.2 |
| 20260503214553 | 75 | 16 | 7.8 | 14.8 | 0.00 | 0.01 | 0.00 | 18 | 1008.4 |
| 20260503213107 | 74 | 360 | 7.0 | 13.0 | 0.00 | 0.01 | 0.00 | 18 | 1008.7 |
| 20260503211554 | 74 | 44 | 3.5 | 14.8 | 0.00 | 0.01 | 0.00 | 18 | 1009.0 |
| 20260503210100 | 74 | 13 | 8.7 | 17.4 | 0.00 | 0.01 | 0.00 | 17 | 1009.4 |
| 20260503204554 | 73 | 355 | 9.6 | 17.4 | 0.00 | 0.01 | 0.00 | 18 | 1009.8 |
| 20260503203103 | 73 | 9 | 7.0 | 15.6 | 0.00 | 0.01 | 0.00 | 17 | 1009.9 |
| 20260503201605 | 73 | 314 | 7.0 | 13.9 | 0.00 | 0.01 | 0.00 | 18 | 1009.9 |
| 20260503200101 | 73 | 26 | 6.1 | 14.8 | 0.00 | 0.01 | 0.00 | 20 | 1010.2 |
| 20260503194554 | 72 | 319 | 8.7 | 16.5 | 0.00 | 0.01 | 0.00 | 19 | 1010.3 |
| 20260503193056 | 73 | 321 | 7.8 | 17.4 | 0.00 | 0.01 | 0.00 | 20 | 1010.8 |
| 20260503191601 | 72 | 315 | 7.8 | 15.6 | 0.00 | 0.01 | 0.00 | 22 | 1010.8 |
| 20260503190057 | 71 | 351 | 5.2 | 13.9 | 0.00 | 0.01 | 0.00 | 22 | 1011.2 |
| 20260503184600 | 70 | 321 | 7.0 | 13.0 | 0.00 | 0.01 | 0.00 | 23 | 1011.3 |
| 20260503183113 | 70 | 16 | 4.3 | 14.8 | 0.00 | 0.01 | 0.00 | 25 | 1011.5 |
| 20260503181559 | 69 | 17 | 7.0 | 14.8 | 0.00 | 0.01 | 0.00 | 25 | 1011.7 |
| 20260503180058 | 68 | 34 | 3.5 | 12.2 | 0.00 | 0.01 | 0.00 | 26 | 1011.9 |
| 20260503174556 | 69 | 355 | 5.2 | 13.0 | 0.00 | 0.01 | 0.00 | 25 | 1012.0 |